Tracking 19827 objects as of 21-Aug-2019
HD Live streaming from Space Station
objects crossing your sky now

CZ-2C DEB


CZ-2C DEB is no longer on orbit


NORAD ID: 37943
Int'l Code: 2011-072C
Perigee: N/A
Apogee: N/A
Inclination: N/A
Period: N/A
Semi major axis: N/A
RCS: N/A
Launch date: November 29, 2011
Source: People's Republic of China (PRC)
Launch site: Taiyaun Space Center, China (TSC)
Decay date: 2013-06-26

Note: This is SATELLITE DEBRIS
aabbcc
Your satellite tracking list
Your tracking list is empty




NASA's NSSDC Master Catalog

Two Line Element Set (TLE):
1 37943U 11072C   13177.77634315  .72841466  23429-5  87389-2 0  9992
2 37943 097.2231 110.9041 0017942 256.5373 165.0123 16.35954716 87260
Source of the keplerian elements: AFSPC